Wind_Speed
44 43 42 41 40 39 39 38 37 36 36 35 34 33 32 31 30 29 28 27 26 25 25 24 23 22 22 21 20 19 19 19 19 20 20 21 20 20 18 18 18 18 18 18 18 18 18 18 18 17 17 18 19 19 19 19 20 22 24 26 27 27 27 26 25 24 24 23 24 24 23 23 23 21 21 22 21 20 18 18 18 19 18 16 15 14 13 13
47 46 44 43 42 41 40 40 39 38 38 37 36 35 34 33 32 31 31 30 28 27 26 26 25 24 24 23 23 21 20 20 21 21 22 22 22 21 19 20 20 20 19 19 19 19 19 19 19 18 17 18 19 20 20 20 21 21 23 25 27 29 29 28 27 26 26 25 26 27 27 27 26 25 24 24 23 21 19 19 20 20 19 19 18 17 16 15
49 48 47 46 45 44 43 42 41 40 40 39 38 37 36 35 35 34 33 32 30 29 29 28 27 27 26 25 25 24 22 22 22 23 23 24 24 22 21 21 21 21 20 20 20 20 20 20 20 20 19 19 19 20 21 21 21 22 23 25 26 28 30 31 30 28 28 28 28 29 29 29 27 27 27 26 25 24 22 21 21 22 22 22 22 21 19 18
52 51 50 49 48 46 45 44 43 42 42 41 40 39 38 37 37 36 35 34 33 31 31 30 29 29 28 27 26 26 25 24 24 24 24 25 25 24 23 23 23 22 22 21 21 21 21 21 22 22 21 21 20 20 21 21 21 22 22 24 26 27 29 31 32 31 31 31 31 31 31 30 29 30 29 28 27 26 25 23 23 23 23 24 23 22 22 22
54 53 52 51 50 49 48 47 46 45 44 43 42 41 40 39 39 38 37 36 35 34 33 32 31 31 30 29 29 28 27 26 26 26 26 26 26 25 25 25 25 24 23 23 23 23 23 23 23 23 23 22 21 21 21 21 22 22 22 24 25 27 28 30 31 32 33 34 34 33 32 32 31 31 31 30 29 27 26 26 25 23 22 23 24 24 24 24
55 54 54 53 52 51 50 49 48 47 46 45 44 43 42 41 40 40 39 38 37 36 35 34 33 32 32 31 30 30 29 28 27 27 27 27 27 26 26 26 26 25 25 25 24 24 24 25 25 25 25 24 23 22 21 21 21 22 23 23 24 26 27 28 29 31 33 35 35 35 34 33 32 31 31 31 30 29 29 28 27 26 24 24 24 24 24 25
55 55 55 54 54 53 52 51 50 49 48 47 46 46 45 43 42 42 41 40 39 38 37 36 35 34 34 33 32 31 31 31 29 28 28 28 28 28 28 28 27 27 26 26 26 26 26 26 27 27 27 27 24 22 21 22 21 22 23 24 24 25 26 27 28 29 31 34 36 36 35 35 33 32 32 31 31 32 32 31 30 29 28 27 27 26 25 25
54 55 55 55 55 54 54 53 52 51 50 49 48 48 47 45 44 44 43 42 41 40 39 38 37 36 35 34 34 33 33 32 31 30 29 29 29 29 29 29 29 28 28 28 28 28 28 28 29 29 29 28 26 23 21 21 22 22 22 23 24 25 25 26 27 28 29 32 35 36 36 36 35 34 34 33 34 34 34 34 33 32 31 31 30 30 28 27
53 54 54 55 55 55 55 54 53 52 51 50 50 49 49 48 47 46 45 44 43 42 41 40 39 38 37 36 35 35 34 34 33 32 30 30 30 30 30 30 30 30 30 30 30 30 30 30 30 30 30 29 28 24 21 20 21 22 23 23 23 24 24 26 27 28 28 30 32 34 35 36 37 36 36 36 36 36 36 36 35 34 34 33 33 32 31 29
53 53 54 54 54 55 55 55 54 53 53 52 51 51 51 50 49 48 47 46 45 44 43 42 42 40 39 38 37 37 37 36 35 33 32 31 31 31 31 31 31 31 31 32 32 32 32 32 32 31 31 30 29 26 22 20 20 21 22 23 23 23 24 25 26 27 28 28 30 32 34 35 36 36 37 37 37 36 36 36 36 35 35 35 35 33 31 29
54 53 53 53 53 54 54 54 54 54 53 53 53 53 52 52 51 50 49 48 47 47 46 45 44 43 41 40 39 40 39 38 37 35 33 33 32 32 33 33 33 33 33 33 34 34 34 34 33 33 32 31 29 27 24 21 20 19 20 22 23 24 24 24 25 26 27 27 28 29 31 32 34 35 35 36 36 36 36 35 35 35 34 34 33 31 29 27
55 54 54 54 53 53 53 53 53 53 53 53 53 54 53 53 52 51 51 50 49 49 48 47 46 45 43 42 41 42 42 40 39 37 35 34 34 34 34 34 35 35 35 35 36 36 36 35 34 34 32 30 29 27 24 22 20 19 19 20 22 23 24 24 24 25 26 26 27 27 27 28 30 32 33 34 35 35 34 33 32 31 31 30 29 28 26 25
56 56 55 55 54 53 53 52 52 52 52 53 53 54 54 54 54 53 52 52 51 51 50 49 48 46 45 44 44 44 44 42 40 39 37 36 36 36 36 36 36 36 36 36 37 37 37 36 35 34 32 30 28 27 25 22 20 19 18 19 20 22 23 23 23 24 24 25 26 26 25 25 26 28 29 31 32 32 31 30 29 28 28 27 27 26 26 25
56 56 56 56 55 55 54 53 52 52 52 52 53 53 54 54 54 54 53 53 53 52 52 51 49 48 47 46 46 46 45 43 42 40 40 39 38 38 38 37 37 37 37 37 38 38 37 36 35 33 31 29 27 26 25 23 21 20 19 18 19 21 22 22 23 23 23 23 23 24 24 24 24 24 25 26 27 27 26 25 25 24 24 25 25 25 26 25
56 56 56 56 56 56 55 54 53 52 52 52 52 53 53 54 54 54 54 54 54 54 53 52 51 50 49 49 48 47 46 44 43 42 42 41 40 40 39 38 38 38 38 38 38 38 37 36 34 33 30 27 25 25 24 23 21 20 19 18 18 19 20 21 21 21 21 21 21 21 21 21 21 22 22 22 22 22 22 21 21 21 21 21 22 22 23 24
56 56 56 56 56 56 56 55 54 54 53 53 53 52 52 52 53 53 54 54 55 55 54 53 52 52 51 51 49 47 46 45 45 45 44 43 42 41 40 39 38 39 38 38 38 37 36 35 33 32 29 26 24 24 24 23 21 19 19 18 18 17 18 19 20 19 18 18 18 18 19 19 19 19 19 19 19 19 19 18 18 18 18 18 18 19 19 21
55 55 56 56 56 56 56 56 55 55 55 55 54 53 52 52 52 52 53 54 55 54 54 54 53 53 53 52 49 47 45 46 47 47 45 45 44 43 41 39 39 39 39 38 38 36 34 33 32 30 29 26 24 24 24 24 22 19 18 18 17 17 17 18 18 18 16 15 15 16 16 17 16 16 16 16 16 16 16 16 16 16 16 16 16 16 17 18
54 55 55 55 55 56 56 55 56 56 56 56 55 54 53 52 51 51 52 53 53 54 54 54 53 53 53 52 50 48 46 47 49 48 47 47 46 43 41 40 40 40 40 39 38 36 33 31 30 29 28 26 25 24 25 24 23 20 19 18 17 17 17 17 17 17 17 16 15 15 15 15 15 15 16 16 15 14 14 15 15 15 14 14 15 15 16 17
51 53 54 54 55 55 55 55 56 56 57 56 56 55 54 53 52 51 51 51 52 52 53 53 53 53 53 52 50 48 47 48 50 49 47 47 46 44 42 41 41 40 40 39 38 35 32 29 28 27 26 26 25 24 24 25 23 21 19 18 18 18 17 17 17 17 17 17 17 16 16 15 15 16 16 16 16 15 16 16 15 15 14 14 14 15 16 16
48 50 52 53 54 54 54 55 56 56 56 56 56 55 55 54 53 52 51 50 51 51 52 52 52 52 52 51 50 49 47 48 49 49 48 47 47 44 42 42 41 41 40 40 37 34 30 28 27 25 24 24 24 23 23 24 23 21 20 19 19 19 18 17 17 17 17 17 18 18 17 17 17 17 17 17 17 18 19 20 19 18 17 16 16 16 17 17
45 47 49 51 52 52 53 54 55 55 55 56 55 55 55 55 54 52 51 51 51 50 50 51 51 52 52 51 51 49 48 48 49 50 49 48 46 44 42 42 41 40 40 40 36 32 30 28 27 24 22 21 22 22 22 23 24 22 20 20 20 20 19 18 18 18 17 17 17 18 18 19 19 19 19 19 19 20 21 22 22 21 20 19 19 19 19 19
41 44 47 49 49 50 52 53 53 54 54 55 55 54 54 55 54 53 52 52 51 50 49 50 51 51 51 51 51 50 49 48 49 50 49 47 45 43 42 42 40 39 40 39 35 31 30 28 26 24 21 21 22 22 21 22 25 24 21 20 20 20 19 19 19 19 18 18 18 18 19 20 21 21 21 21 21 21 21 22 22 21 21 20 20 21 21 21
38 41 44 44 45 47 50 51 52 52 53 53 53 54 54 54 54 53 53 52 51 50 49 50 50 50 50 51 51 50 49 47 47 49 49 47 44 42 42 41 39 38 39 37 33 31 30 29 27 25 23 22 22 22 21 22 25 26 23 22 21 21 20 20 19 19 19 19 19 19 19 21 21 22 22 22 22 22 22 21 21 22 22 22 22 22 23 23
34 37 38 39 42 46 48 49 50 50 51 51 52 52 52 53 52 52 53 53 52 50 49 49 50 50 51 51 51 50 48 47 47 48 49 47 44 43 42 40 39 39 38 35 32 31 30 30 29 27 25 23 22 21 21 22 24 26 25 24 23 21 20 20 20 20 20 20 20 20 20 21 21 22 23 23 23 24 24 24 24 25 26 26 26 26 26 26
29 31 33 36 40 43 45 47 47 48 49 50 50 51 51 52 52 52 53 53 52 51 50 50 50 50 51 51 52 50 49 48 47 48 48 46 44 42 41 40 40 40 37 34 32 32 31 31 30 29 27 25 22 21 22 22 24 26 26 26 24 22 21 21 21 21 21 22 22 22 23 23 23 24 25 26 26 27 27 28 28 29 29 29 28 28 27 27
25 26 29 33 37 39 42 44 45 46 47 48 48 49 50 51 51 51 52 53 52 51 51 51 50 50 51 52 52 50 50 48 47 47 47 46 44 42 41 42 42 40 37 35 34 33 32 32 31 31 29 25 22 22 22 23 25 26 27 27 26 24 22 22 22 22 22 23 24 24 24 25 25 26 27 27 28 29 30 31 31 30 29 28 28 28 27 26
21 23 26 30 33 35 38 40 41 43 44 45 46 47 48 49 50 50 51 52 52 52 52 51 51 51 52 52 51 50 50 47 46 46 46 45 44 42 42 43 42 40 38 36 35 35 33 33 33 32 30 25 23 23 22 23 26 26 26 26 26 25 24 24 24 23 23 24 24 25 24 25 25 26 27 28 28 29 29 30 30 29 28 27 27 26 25 23
18 21 23 26 29 31 34 35 37 39 41 42 43 45 46 47 49 50 50 51 52 52 52 52 51 51 51 51 51 51 48 45 45 45 45 44 43 42 42 42 41 39 38 37 36 35 34 34 34 33 29 26 24 23 22 23 25 25 24 24 25 26 26 26 26 25 24 24 25 26 25 25 25 26 27 28 28 28 28 28 28 27 26 25 24 23 23 22
16 18 20 23 25 27 29 30 32 35 37 39 40 42 44 45 47 48 49 50 51 51 51 51 51 50 50 51 50 49 46 44 44 44 44 44 44 44 43 41 39 39 40 38 37 36 36 36 35 33 30 27 26 24 23 24 25 24 23 23 24 26 27 27 27 26 25 25 26 26 26 27 26 26 27 27 28 28 28 28 28 27 26 24 23 23 23 23
14 15 17 20 22 23 24 26 28 30 32 35 37 39 41 43 45 46 48 48 48 49 49 49 49 49 49 49 48 48 46 45 44 43 44 45 45 44 43 40 39 41 42 40 37 38 38 38 36 34 31 29 28 27 25 26 26 24 23 23 25 27 28 27 27 27 26 25 26 26 27 27 27 27 27 27 27 28 28 28 28 27 27 25 24 24 25 25
13 14 15 16 18 19 21 23 25 27 28 30 32 35 37 40 41 44 45 46 46 46 47 47 47 47 47 47 47 47 46 45 44 44 44 46 45 44 43 41 41 42 44 42 39 39 39 39 38 35 33 31 30 28 27 27 27 26 25 25 25 27 27 27 28 28 27 26 25 25 26 27 28 27 26 27 27 28 28 28 28 27 27 26 25 25 26 27
13 12 12 13 14 16 17 20 22 24 25 26 28 30 33 35 38 41 42 43 44 45 45 45 46 46 47 47 47 47 47 46 45 45 45 46 46 45 45 43 42 43 45 43 40 39 41 40 38 36 35 34 32 30 28 28 27 27 26 26 26 26 27 28 29 29 29 27 25 25 26 27 27 26 26 26 27 27 28 28 28 28 27 26 26 27 27 27
12 11 11 11 12 13 15 17 19 20 22 22 24 26 29 31 34 36 38 40 42 43 44 44 45 46 47 47 47 47 47 46 45 45 45 45 46 46 45 44 42 43 46 44 41 40 41 40 38 38 37 35 33 31 29 28 28 28 27 27 26 26 26 28 29 30 29 27 25 24 26 26 26 26 26 26 27 27 28 28 28 28 27 27 27 27 27 27
11 11 10 10 10 11 12 15 16 18 18 20 21 23 26 28 30 33 35 38 40 41 43 44 46 47 48 48 48 47 47 46 45 45 45 45 45 45 45 45 44 44 46 45 41 40 41 41 40 40 38 36 34 31 29 28 29 30 29 28 26 26 26 28 30 30 30 28 25 24 25 26 26 26 26 26 26 26 27 28 28 28 27 27 27 27 27 28
11 10 10 9 9 9 11 12 14 15 16 18 20 22 23 25 27 30 32 35 37 39 41 43 45 47 48 48 48 47 47 46 46 46 45 45 45 45 46 46 45 45 46 45 43 41 42 43 42 41 40 38 34 31 29 29 30 30 30 30 28 26 27 29 30 31 30 28 25 24 24 25 26 26 26 26 26 26 26 27 27 27 27 26 26 27 28 28
10 10 9 9 8 8 9 10 12 13 15 17 18 20 21 23 25 27 29 31 33 35 38 41 43 45 47 48 47 47 46 46 46 46 45 46 45 45 46 46 46 46 46 46 45 42 43 45 44 42 41 39 34 31 30 30 30 31 33 32 29 28 29 30 31 31 31 29 26 25 25 25 25 25 25 25 26 26 26 26 26 27 27 27 27 27 27 27
8 9 9 9 8 7 8 9 10 12 14 16 18 19 20 21 23 24 25 27 30 32 35 37 40 42 44 45 46 46 46 47 47 46 46 46 46 46 47 47 47 48 48 48 46 44 44 46 44 43 42 38 35 33 32 31 30 31 34 33 29 29 31 31 31 31 31 30 28 26 26 26 25 25 25 24 25 26 26 26 26 26 26 26 27 26 26 25
8 8 9 9 8 7 7 7 9 11 14 16 17 18 19 19 20 21 23 24 27 29 31 33 36 38 40 43 44 46 47 48 47 47 47 48 48 47 48 48 48 49 48 47 47 45 45 45 44 44 43 39 36 36 34 32 31 32 33 32 30 30 31 32 31 31 31 30 29 28 27 27 26 26 25 25 25 26 26 26 26 26 26 27 27 26 25 25
8 8 8 8 8 7 6 5 6 9 12 15 16 16 16 17 18 20 21 23 24 26 28 30 32 34 37 39 42 45 46 47 48 48 48 49 48 47 48 49 49 49 48 47 47 47 46 46 45 45 45 41 39 39 36 33 32 32 33 32 31 32 32 32 31 30 30 30 30 29 28 27 27 26 26 27 27 27 27 27 26 27 27 27 27 27 26 25
8 8 8 8 7 6 5 4 4 6 9 13 14 15 15 15 16 18 19 20 22 23 25 28 29 31 34 37 40 42 43 45 46 47 49 49 48 47 47 47 47 48 47 47 48 48 48 47 46 46 45 43 42 41 38 36 34 33 33 33 33 33 32 32 30 29 29 29 30 30 28 27 26 26 26 27 28 28 27 27 27 27 27 28 28 28 26 25
8 8 8 8 8 7 6 5 3 3 6 9 11 13 14 14 15 16 18 19 20 22 24 26 27 29 32 35 37 39 40 42 43 45 47 47 46 46 45 46 47 47 47 47 48 49 50 50 49 47 46 45 45 43 41 39 37 35 35 34 33 31 30 30 29 28 28 29 29 28 28 27 26 25 26 26 27 28 27 27 27 27 27 28 28 27 26 25
7 8 8 8 8 8 7 6 5 4 5 6 8 10 13 14 15 16 17 18 20 21 23 25 26 29 31 33 35 37 38 40 41 43 44 44 44 44 45 46 47 47 47 47 48 49 50 50 50 48 47 47 47 46 44 43 40 37 36 34 32 29 28 28 28 28 27 28 28 27 27 28 26 25 25 26 27 27 27 27 27 27 27 27 27 26 24 23
6 7 7 7 7 8 7 6 6 6 5 5 6 8 11 13 15 16 17 18 19 20 21 23 25 27 29 31 33 35 37 39 40 41 42 42 42 43 44 45 46 46 47 47 47 48 49 50 50 49 48 48 48 48 47 44 42 40 37 33 30 29 28 28 28 27 27 28 28 27 27 27 26 24 23 26 27 27 27 27 27 28 27 27 26 24 23 22
7 6 6 5 6 8 8 7 7 7 6 5 5 7 9 11 13 15 17 17 18 19 20 21 23 24 26 27 29 32 35 37 39 40 41 41 42 42 42 43 44 45 47 47 47 48 49 50 51 51 49 49 49 49 48 46 44 42 38 33 31 30 29 29 29 27 28 29 28 27 27 26 24 22 22 26 28 28 28 27 27 27 27 26 25 24 22 21
8 8 6 5 6 8 10 9 9 9 8 6 6 8 9 10 12 14 15 16 17 18 19 19 20 22 23 24 26 28 31 33 35 37 39 40 41 42 43 42 42 44 46 47 47 47 48 50 51 49 49 49 49 48 47 46 45 43 39 35 33 31 30 30 29 28 29 31 28 27 27 26 23 22 24 28 29 28 28 27 26 26 26 25 25 24 22 20
10 10 8 7 7 9 10 10 10 10 9 8 8 8 9 10 12 14 15 16 16 17 17 17 18 20 21 22 24 26 27 29 31 32 34 35 37 40 41 41 42 43 44 45 46 47 48 49 49 48 49 49 48 48 48 47 46 43 40 37 35 33 32 31 29 29 31 31 29 29 28 25 24 25 28 31 30 29 29 28 26 25 25 25 25 24 22 21
12 12 11 9 9 10 11 10 10 10 10 9 9 9 9 9 10 12 14 14 15 16 16 17 18 20 21 22 23 24 25 26 28 29 30 31 33 36 38 39 40 41 42 44 45 46 48 49 49 48 49 49 48 48 47 47 46 44 42 39 36 34 34 32 31 31 32 32 32 31 28 26 26 29 31 32 31 30 29 28 26 25 25 25 25 24 22 20
14 14 14 12 11 11 12 12 10 10 11 11 10 10 9 9 9 10 12 12 13 14 15 17 18 19 20 21 22 23 24 25 27 28 29 30 31 33 35 36 38 39 40 42 44 46 47 49 49 49 49 48 47 47 46 46 46 45 43 39 36 36 35 34 33 33 33 33 33 31 27 27 29 30 31 32 31 31 30 28 26 25 26 26 26 24 21 19
16 16 16 14 13 12 13 13 12 11 11 12 11 10 9 9 9 9 10 11 11 12 14 16 18 19 19 20 22 23 24 25 26 27 27 28 29 31 33 34 36 37 39 41 42 45 47 49 49 49 49 48 47 46 45 45 46 45 43 39 36 36 36 35 35 35 34 34 33 31 28 28 29 30 31 32 32 31 31 29 27 26 26 27 27 25 22 20
17 17 17 16 15 14 14 14 14 13 12 12 11 10 9 9 10 10 10 10 10 11 14 16 18 19 19 20 21 22 22 23 24 25 25 26 27 28 29 31 33 35 37 38 40 43 45 48 49 49 49 48 47 46 46 46 45 44 42 39 37 37 37 36 36 35 34 34 33 31 29 29 30 31 32 33 32 32 32 30 28 27 27 28 28 26 24 22
19 19 19 18 17 16 15 15 15 14 13 13 12 11 9 9 11 11 11 11 11 11 13 15 17 18 19 20 20 21 21 21 22 22 22 23 24 25 26 28 29 31 33 35 37 39 42 44 46 47 48 47 45 45 46 46 44 43 42 39 37 37 37 36 36 35 34 34 32 31 30 30 31 32 33 33 33 33 32 30 28 28 28 28 28 26 24 22
21 21 20 20 19 18 17 17 16 15 14 13 12 11 10 10 11 12 12 13 13 13 14 15 16 18 20 19 19 19 19 20 21 21 21 21 22 23 25 26 27 29 31 32 34 36 38 40 41 43 46 44 42 43 44 43 43 42 41 40 38 38 37 36 35 35 35 34 32 31 31 31 31 32 33 33 33 33 32 30 29 29 28 28 26 24 22 21
Wind_Direction
238 238 239 240 241 241 242 242 242 242 241 241 241 241 241 241 242 242 242 242 242 242 243 244 245 246 248 249 251 251 254 258 263 267 270 272 274 275 277 280 281 281 281 282 282 284 285 287 289 290 292 291 288 283 276 267 258 249 244 241 240 239 238 237 237 240 241 241 243 246 245 241 236 232 234 241 249 253 256 260 262 264 265 264 268 275 276 278
237 238 238 239 240 241 242 242 243 243 243 243 242 242 243 243 243 243 244 244 244 244 245 246 247 248 250 252 253 254 255 259 263 267 270 272 273 274 277 280 281 282 283 284 285 286 287 289 291 291 292 291 289 284 278 271 264 257 251 246 242 240 239 238 238 240 243 243 244 248 250 247 244 241 241 248 256 259 259 258 262 266 268 268 272 275 277 278
238 237 238 238 239 240 241 242 243 243 244 244 244 244 244 244 245 245 245 246 246 246 247 248 249 250 251 253 255 256 258 261 264 267 270 273 275 276 278 280 281 283 285 286 287 288 290 291 294 295 294 293 291 286 280 273 267 261 256 252 248 243 240 239 239 240 242 242 244 250 253 252 252 250 248 250 255 258 258 258 260 265 270 273 276 279 280 279
238 238 238 238 238 239 240 241 242 243 243 244 245 245 245 245 246 246 247 247 247 247 248 249 250 252 253 254 256 258 259 262 264 267 270 273 276 277 279 281 282 284 285 287 288 290 292 294 296 297 297 296 293 288 282 275 269 264 258 254 252 249 245 242 240 239 240 242 244 248 253 253 254 254 252 251 253 257 260 260 259 264 270 275 279 281 281 279
238 238 238 238 238 238 239 240 240 241 242 243 244 245 245 246 247 247 248 248 248 249 249 250 251 253 254 255 257 259 260 262 264 266 269 272 275 277 279 281 283 285 286 287 289 291 293 295 298 299 299 298 296 292 285 278 271 266 261 255 252 251 249 247 244 241 240 241 244 246 250 252 253 255 255 254 255 259 263 266 265 266 269 273 279 282 284 284
237 238 238 238 238 238 238 239 239 240 241 242 243 244 245 246 247 248 248 249 249 250 250 251 252 253 255 256 257 259 261 262 264 266 269 271 274 276 279 281 283 285 287 289 290 292 294 298 301 303 303 301 299 296 289 281 273 268 264 259 253 250 249 248 247 245 243 242 243 244 247 250 252 254 256 257 259 262 266 269 270 269 269 271 275 280 286 288
237 237 238 238 238 239 238 238 239 239 239 240 241 243 244 245 246 247 248 249 250 251 251 252 252 254 255 257 258 259 261 262 263 266 268 270 273 275 278 280 283 285 288 290 291 293 296 299 302 304 305 304 302 298 292 283 274 267 264 263 259 254 251 250 248 247 246 244 243 243 244 247 250 252 255 257 259 262 266 269 270 271 271 273 276 279 283 287
237 237 237 238 238 238 239 238 238 238 238 239 240 241 242 243 244 246 248 249 250 251 252 252 253 254 255 257 258 260 261 263 263 265 267 269 272 275 277 280 282 285 287 289 292 294 296 299 301 304 306 305 303 300 294 285 278 270 265 262 261 259 256 254 252 249 247 246 245 244 244 246 248 251 254 255 258 260 264 268 270 272 273 275 277 279 282 286
236 237 237 238 238 238 238 239 238 238 238 238 238 240 241 242 243 244 246 248 249 250 251 252 253 253 255 256 258 260 261 262 264 265 267 268 271 274 277 280 282 284 287 289 291 293 295 298 300 303 305 305 303 300 294 285 278 273 269 266 262 260 258 256 255 254 252 249 247 246 246 246 248 250 253 255 258 261 264 268 271 273 274 276 279 282 284 287
235 236 237 237 238 238 238 238 238 238 238 238 238 239 240 241 241 242 244 246 248 249 250 251 253 253 254 255 257 259 260 262 264 265 266 268 270 273 276 279 281 283 285 287 290 292 294 297 300 302 304 305 303 300 297 289 279 272 270 269 266 263 261 259 257 256 256 254 252 250 249 248 249 251 253 256 258 261 264 267 270 273 275 278 282 285 287 289
235 236 236 237 238 238 238 238 238 238 238 238 238 238 239 240 240 241 242 244 246 248 249 250 251 253 253 254 256 258 260 261 263 265 266 267 269 271 274 277 279 281 284 286 289 291 294 296 299 302 303 305 304 302 299 294 284 275 270 269 269 266 263 261 259 258 258 258 258 256 254 253 252 253 255 257 260 262 265 267 270 274 277 281 284 287 289 290
234 235 236 237 237 238 238 239 239 239 238 238 238 239 239 240 240 241 242 243 244 246 247 249 250 252 253 254 254 257 259 260 262 264 266 267 268 270 272 274 277 279 282 285 288 290 293 295 298 300 303 305 305 302 299 294 286 278 272 269 269 269 267 264 261 260 260 261 261 262 261 259 258 258 259 260 262 264 267 270 273 275 278 281 283 284 284 283
234 234 235 236 237 238 238 239 239 239 239 239 239 239 239 240 240 240 241 242 243 245 246 247 249 250 252 252 253 255 258 260 262 264 266 266 267 268 270 272 275 278 281 283 285 288 290 293 296 299 303 305 303 300 297 293 287 281 276 272 271 271 270 268 266 263 263 263 264 265 265 264 264 263 263 264 265 268 271 274 276 278 279 280 280 279 277 277
234 234 235 235 236 237 238 239 239 240 240 239 239 239 240 240 240 240 241 242 243 244 245 247 248 249 250 251 252 254 257 259 261 263 264 265 265 266 268 270 273 276 278 280 282 285 288 292 295 299 302 303 299 295 293 291 287 284 279 275 273 273 273 272 271 269 267 267 267 268 269 270 269 269 269 268 269 270 273 276 277 279 280 280 280 279 278 277
235 235 235 236 236 237 238 239 239 240 240 240 240 240 240 240 241 241 241 242 243 244 245 246 247 248 249 250 251 253 256 259 261 262 262 263 264 265 267 269 271 273 275 277 279 283 287 291 295 297 298 297 294 290 289 287 284 282 279 275 272 271 272 271 271 271 272 271 271 272 274 275 275 275 275 274 274 274 275 277 279 280 280 280 281 280 280 278
234 235 236 236 236 237 237 238 239 239 240 241 241 240 240 240 241 241 242 242 243 244 245 246 247 248 249 249 251 252 255 258 259 259 260 262 263 263 265 267 269 271 273 275 277 281 285 289 292 293 293 291 288 286 286 284 281 279 277 275 273 271 269 268 268 268 270 273 274 276 276 276 276 277 279 282 284 284 284 284 283 284 283 283 283 282 282 280
234 235 236 236 237 237 237 237 238 239 240 241 241 241 241 240 240 241 241 242 243 244 244 245 246 247 248 249 251 252 254 256 257 257 258 260 260 261 263 265 267 269 271 273 275 278 282 285 288 289 289 287 285 284 284 284 282 279 276 276 275 273 271 270 269 268 267 268 272 276 278 279 279 282 289 294 297 298 296 293 291 290 290 290 289 288 287 284
234 234 235 236 236 237 237 237 237 238 239 240 241 241 242 241 241 241 241 242 243 243 244 245 246 247 248 249 250 250 251 253 255 256 257 259 260 261 263 264 265 267 269 271 273 276 279 282 284 285 285 285 283 283 284 285 285 283 280 277 276 275 273 272 272 274 274 274 275 277 280 284 290 296 302 304 305 306 306 304 303 301 300 299 297 295 293 291
234 234 235 235 236 237 237 237 237 237 238 239 240 241 242 242 242 242 242 243 243 244 244 245 245 246 248 249 249 249 250 251 254 256 257 258 260 261 262 263 265 266 268 270 272 274 277 279 280 281 282 282 282 283 285 287 287 287 284 281 278 276 274 273 272 274 276 280 284 286 288 292 297 302 305 308 308 309 308 308 308 305 304 303 301 300 299 298
234 234 234 235 235 236 236 237 237 237 238 238 239 240 242 242 243 242 242 243 243 244 244 245 245 246 247 248 248 248 249 250 253 255 255 256 258 260 261 262 264 266 268 270 272 274 276 276 276 277 278 279 281 283 284 285 285 285 284 283 281 279 278 276 274 273 273 275 280 286 292 295 299 302 305 308 308 307 309 309 309 309 307 306 305 305 305 305
235 234 234 234 234 235 235 236 237 237 237 238 238 239 240 241 242 242 242 242 243 243 244 245 246 246 246 247 247 247 247 248 251 253 254 255 257 259 261 262 264 266 268 270 272 274 275 273 273 273 274 273 274 276 278 280 280 280 280 281 281 280 280 279 278 277 275 274 276 281 286 290 293 297 299 300 301 303 305 306 308 308 308 307 307 307 307 307
235 235 235 234 234 235 235 236 236 236 237 237 238 238 239 240 241 241 242 242 242 242 243 244 245 245 246 246 247 246 246 247 249 252 254 255 257 259 261 262 264 266 267 269 272 274 272 270 269 268 266 264 265 268 272 275 277 278 277 277 278 279 281 281 280 278 277 275 274 276 280 284 286 287 287 288 290 293 296 298 300 301 302 302 301 302 302 302
237 236 236 236 235 235 235 235 235 236 236 237 237 237 238 239 240 241 242 242 242 241 241 243 244 245 245 246 246 246 246 247 248 252 254 255 256 258 259 261 262 264 265 268 271 271 269 268 266 264 260 257 258 263 267 270 275 278 278 276 275 277 279 280 279 278 277 275 273 273 276 279 282 283 283 282 283 285 286 288 290 292 293 293 294 295 296 296
239 239 238 237 237 236 236 236 235 235 235 236 236 237 237 238 238 239 241 242 242 241 241 241 242 243 243 244 245 245 245 245 246 249 252 253 254 255 256 259 260 260 262 265 266 266 267 266 264 262 258 255 256 260 264 268 273 276 277 276 275 276 279 282 282 280 278 275 273 271 271 272 274 278 280 282 283 283 283 284 285 287 288 288 289 290 291 293
242 241 240 238 237 237 237 237 236 236 235 235 235 236 236 237 236 237 238 240 240 240 241 241 241 241 242 243 244 244 244 243 243 246 250 252 253 254 255 256 256 257 259 260 261 261 262 262 262 261 258 257 257 259 261 264 267 270 273 275 277 279 282 284 284 283 281 279 277 275 272 271 272 274 276 279 281 283 284 285 285 286 287 288 288 289 291 293
244 243 241 239 239 238 238 238 237 236 236 235 235 235 235 236 236 235 236 238 238 238 239 240 240 240 241 242 243 243 243 243 243 245 249 250 252 252 253 253 254 256 256 257 257 257 257 258 259 259 259 260 258 257 258 261 264 267 272 277 281 284 284 284 283 283 283 283 282 281 279 279 279 279 279 280 281 282 284 285 286 286 287 287 287 289 292 294
246 244 242 242 241 240 239 239 238 237 237 236 235 234 234 235 235 235 235 236 237 237 238 238 238 239 240 241 242 243 243 243 243 245 248 250 251 251 251 253 255 256 256 255 255 255 255 256 257 258 260 260 258 257 258 261 264 268 273 279 284 286 284 283 283 283 284 285 285 285 285 285 285 285 286 286 286 285 285 285 286 287 287 288 290 293 296 299
248 246 245 245 244 243 242 241 240 239 238 237 236 235 234 234 234 234 234 235 236 236 237 238 238 239 240 241 242 243 243 243 244 245 247 249 250 250 250 252 254 256 255 254 254 255 255 255 256 257 259 258 256 255 256 258 262 266 271 276 281 282 281 282 282 283 285 287 288 288 289 289 289 289 289 290 290 290 290 290 291 291 292 294 297 300 302 304
253 251 249 248 247 246 245 243 242 240 239 238 236 235 234 233 233 234 234 235 236 236 237 238 238 239 239 241 243 244 244 243 243 244 246 247 247 247 248 250 252 254 253 252 252 253 253 253 254 256 256 255 252 251 250 253 257 261 265 269 273 274 277 279 282 284 285 286 287 289 290 291 291 290 291 291 293 294 295 296 297 297 298 299 300 300 301 301
259 257 254 252 251 249 247 246 244 242 240 238 237 236 235 234 234 234 235 236 236 237 238 239 240 241 241 242 243 245 244 243 242 242 243 245 246 246 248 248 249 251 251 251 250 250 251 252 253 253 253 252 251 249 247 250 253 256 259 263 266 270 273 277 279 280 280 281 283 286 288 289 289 290 292 294 295 296 297 297 298 299 299 299 299 299 298 299
263 264 262 260 256 253 249 247 245 243 240 238 237 236 235 234 234 234 234 235 236 237 238 239 241 242 243 243 243 244 245 244 243 241 241 243 244 244 245 245 245 247 249 249 248 249 251 252 252 252 251 250 249 249 248 249 252 254 256 258 262 267 271 273 274 275 276 276 278 281 283 285 287 290 293 296 296 296 296 296 296 296 296 297 297 297 298 300
266 270 271 268 262 256 252 248 246 243 241 239 238 236 236 235 234 233 233 233 234 235 236 238 239 240 241 241 242 243 243 244 243 241 241 241 243 243 243 243 243 246 249 249 248 249 251 253 253 253 252 250 250 250 249 250 253 255 256 258 260 265 269 271 271 272 273 273 275 277 280 282 287 291 294 295 295 295 295 294 294 294 294 294 294 295 296 299
267 272 275 273 267 259 253 250 247 244 242 239 238 236 235 234 233 233 232 232 232 232 233 234 236 238 238 239 239 240 242 243 243 242 242 242 243 244 245 245 244 245 249 250 249 250 252 254 254 254 253 252 252 251 250 251 254 255 256 257 259 262 266 269 271 271 272 274 276 278 281 284 287 290 291 292 293 293 293 293 294 294 294 293 294 295 297 300
265 272 276 276 271 263 255 251 249 246 243 240 237 236 235 233 233 232 231 230 230 230 230 230 231 233 235 236 237 238 240 241 242 242 242 242 242 244 245 245 244 244 247 249 249 249 251 253 253 253 254 253 252 252 251 251 253 254 254 254 256 259 262 265 267 270 272 274 276 278 280 284 286 287 289 290 291 291 292 293 294 295 294 294 295 297 299 303
266 271 276 278 276 269 260 254 250 247 243 239 237 235 234 233 232 231 230 229 229 229 230 230 230 231 233 234 235 236 238 239 240 241 242 242 242 243 244 246 246 245 246 248 248 247 249 251 252 252 253 253 253 252 251 250 251 254 254 252 252 254 257 260 263 267 270 273 275 277 278 279 282 284 287 289 291 291 292 293 294 295 296 296 297 299 301 305
269 271 275 280 282 277 269 259 253 249 244 240 237 235 234 233 232 231 231 230 229 229 229 230 231 232 234 235 235 236 237 238 239 240 241 242 242 242 243 244 246 246 246 247 247 247 248 250 252 253 253 254 255 253 251 250 250 253 255 254 251 252 255 258 261 265 268 272 274 275 276 277 278 281 284 287 290 291 292 293 294 296 297 298 299 301 303 306
273 271 270 273 278 280 274 265 256 248 244 241 237 234 233 233 232 231 230 230 229 229 229 229 230 231 233 235 236 236 236 237 238 239 240 240 241 242 242 242 243 244 245 246 247 247 248 250 253 254 255 256 257 255 252 250 249 250 254 256 255 255 256 258 261 264 268 271 272 273 275 277 278 281 283 286 287 289 290 292 293 294 295 297 298 300 302 305
277 277 273 272 273 277 278 273 263 254 248 244 240 236 234 233 232 230 229 229 229 229 229 229 230 230 231 233 235 235 236 236 236 237 238 239 240 241 242 243 243 244 245 246 247 248 248 250 253 255 256 257 256 255 253 250 249 249 252 254 255 256 257 258 261 265 268 270 272 273 274 277 280 284 286 287 288 289 289 291 292 292 293 295 296 298 300 303
274 278 278 275 274 277 287 290 281 267 257 250 246 242 238 234 232 230 228 227 228 229 228 228 229 229 230 231 233 234 235 235 236 236 237 238 238 239 241 243 244 246 247 248 249 250 251 252 253 254 257 258 256 255 254 251 249 249 250 251 251 252 254 257 260 263 267 271 273 274 275 278 282 285 287 288 289 289 290 291 292 293 294 294 295 297 300 303
265 270 273 274 271 269 274 287 291 276 261 253 248 244 240 235 233 231 228 227 226 227 227 227 227 227 227 229 230 232 233 235 236 236 237 237 238 238 240 243 246 247 249 250 252 253 254 254 253 253 256 258 257 256 255 253 250 249 249 249 248 249 251 255 258 261 264 268 270 273 276 278 280 283 285 286 286 287 289 290 292 294 295 295 296 297 299 301
258 262 266 271 271 265 256 249 247 256 259 254 248 243 237 232 230 230 228 225 224 224 225 225 225 225 227 227 229 230 231 233 234 236 237 238 239 239 239 241 244 246 247 248 250 252 253 253 253 253 255 256 256 257 256 255 253 250 250 250 250 252 254 258 260 262 264 266 268 272 275 275 276 278 281 282 283 285 287 288 291 292 293 293 294 295 297 300
256 257 262 267 272 273 267 257 246 233 237 243 242 239 235 229 226 227 227 226 224 224 225 225 224 225 226 227 228 228 229 231 232 234 235 236 238 238 238 238 239 241 243 244 245 247 250 253 254 255 255 255 256 256 255 255 255 252 251 252 254 257 259 260 262 263 265 266 268 269 270 272 274 276 279 280 281 283 285 287 289 290 291 292 293 295 296 298
255 258 262 267 270 271 267 259 252 242 230 223 223 228 231 229 226 225 227 227 226 226 227 228 228 229 229 230 230 230 229 229 230 231 232 233 234 235 236 237 238 239 240 242 243 244 246 249 251 252 252 253 255 255 255 256 257 256 255 255 257 258 259 260 260 261 263 264 264 265 266 269 272 276 278 278 278 279 281 283 285 287 290 291 293 295 296 297
251 256 259 261 262 260 253 244 239 239 234 226 224 225 224 227 229 230 231 231 229 227 228 228 231 232 233 234 235 236 235 234 233 232 232 231 232 232 233 235 236 238 239 240 241 242 244 246 247 248 249 250 252 253 255 257 258 258 259 259 258 257 258 258 259 260 261 261 261 263 265 267 270 273 273 272 272 274 276 279 281 284 287 290 292 294 295 297
250 251 249 249 254 257 253 246 240 238 236 233 237 236 225 219 222 228 232 234 234 234 233 233 234 236 236 236 237 239 240 240 240 238 237 235 234 233 232 232 233 236 238 239 240 241 243 245 247 248 249 250 251 253 255 256 257 258 259 258 257 256 255 256 257 258 258 259 259 260 261 264 267 267 264 264 267 270 273 276 278 282 285 288 291 293 294 295
250 249 243 239 247 255 255 251 247 244 239 233 235 240 236 226 222 222 226 231 235 237 237 235 236 238 237 237 237 239 240 241 241 242 241 241 240 239 238 235 233 234 236 238 239 240 242 244 246 247 248 250 251 252 253 254 256 256 256 256 255 255 254 254 255 255 256 257 257 257 258 260 260 259 259 261 264 268 271 274 278 282 285 287 289 290 291 291
248 249 244 236 240 251 255 254 250 246 242 235 233 238 240 239 237 234 232 230 231 233 233 232 233 234 235 236 236 238 240 241 241 241 240 240 240 241 241 239 237 236 236 236 238 239 241 243 244 244 246 247 249 250 252 254 255 255 255 255 255 255 254 253 253 253 254 255 256 256 257 258 257 257 260 263 267 269 272 275 278 281 283 285 286 287 287 287
241 246 246 239 235 243 252 255 252 248 243 239 237 239 240 242 244 245 244 240 235 234 234 234 236 237 237 236 236 237 238 239 240 240 239 238 239 239 239 239 238 238 238 237 238 239 240 242 244 244 245 245 247 249 250 253 254 255 255 255 255 255 255 254 253 252 253 254 256 256 256 255 255 258 262 266 269 271 273 275 278 280 281 281 282 284 285 284
234 239 243 241 235 237 246 252 253 250 247 244 242 243 246 247 245 244 248 251 251 250 249 245 244 244 242 240 239 239 239 239 240 241 242 241 241 241 241 240 238 237 238 239 239 239 240 242 244 245 246 246 247 248 249 250 252 254 255 255 255 255 256 256 255 254 255 256 257 258 256 254 254 256 259 262 266 269 272 274 276 277 278 278 279 281 283 282
230 233 237 239 237 236 240 248 251 251 251 251 249 246 246 249 249 246 246 251 255 258 259 258 257 254 251 248 247 246 245 245 244 244 244 244 244 245 245 245 243 241 240 240 241 242 243 244 244 245 246 246 246 247 247 249 250 252 253 254 253 254 255 255 256 257 258 258 259 260 259 256 254 254 256 259 262 265 269 272 274 275 274 275 278 279 282 282
229 230 232 235 237 238 239 244 248 250 252 254 255 252 247 245 248 247 244 245 247 248 252 258 262 262 259 257 256 255 254 251 250 248 246 246 246 246 247 247 247 245 243 242 243 245 247 249 250 251 251 250 250 250 250 250 251 252 253 253 252 252 253 255 256 257 258 258 259 260 259 257 255 255 257 259 262 264 267 271 273 274 274 275 278 279 281 281
230 229 230 232 236 238 240 243 247 249 250 253 256 256 252 246 245 246 245 244 244 243 244 249 256 260 262 263 263 263 261 258 255 253 250 248 248 247 245 245 245 245 244 243 244 245 247 249 251 253 254 255 255 255 256 256 255 254 255 254 252 252 252 253 254 255 256 257 258 258 258 258 258 257 258 260 262 265 268 271 273 274 276 277 279 281 282 280
Height
10954 10956 10957 10959 10960 10962 10964 10965 10967 10968 10969 10971 10972 10974 10975 10976 10978 10979 10980 10982 10983 10984 10985 10986 10987 10988 10988 10989 10990 10991 10992 10992 10991 10991 10990 10990 10990 10991 10992 10992 10992 10992 10992 10992 10991 10991 10991 10991 10991 10992 10992 10992 10991 10991 10992 10992 10993 10994 10994 10995 10996 10997 10999 11000 11000 11001 11002 11002 11002 11001 11001 11000 11002 11003 11003 11004 11004 11005 11006 11007 11007 11007 11008 11008 11009 11008 11008 11008
10950 10952 10954 10955 10957 10959 10960 10962 10964 10965 10966 10968 10970 10971 10972 10974 10975 10976 10978 10979 10981 10982 10983 10984 10985 10986 10986 10987 10988 10989 10990 10990 10990 10989 10989 10988 10988 10990 10991 10991 10990 10990 10990 10990 10990 10989 10989 10989 10989 10990 10990 10990 10990 10990 10990 10990 10991 10991 10992 10993 10993 10995 10996 10998 10999 10999 11000 11000 11000 10999 10999 11000 11001 11002 11003 11003 11003 11004 11006 11006 11006 11006 11007 11007 11008 11008 11008 11008
10945 10947 10949 10951 10953 10955 10957 10959 10960 10962 10963 10965 10967 10968 10970 10971 10972 10974 10975 10976 10978 10980 10981 10982 10983 10983 10984 10985 10986 10987 10988 10989 10989 10988 10987 10987 10986 10988 10989 10988 10988 10988 10989 10988 10988 10988 10987 10987 10987 10987 10988 10988 10988 10987 10988 10988 10988 10989 10990 10990 10991 10992 10994 10995 10996 10997 10998 10998 10998 10997 10997 10999 11000 11001 11002 11002 11002 11003 11004 11005 11006 11006 11006 11006 11006 11007 11007 11008
10940 10943 10945 10947 10949 10951 10953 10955 10957 10959 10960 10962 10963 10965 10967 10968 10970 10971 10972 10974 10975 10977 10978 10979 10980 10981 10982 10983 10984 10985 10986 10987 10987 10987 10986 10985 10985 10986 10986 10986 10986 10987 10987 10987 10986 10986 10986 10986 10986 10986 10986 10986 10986 10985 10986 10986 10986 10987 10987 10988 10988 10989 10990 10992 10994 10994 10995 10995 10995 10995 10994 10996 10998 10999 11000 11000 11000 11001 11002 11003 11004 11005 11004 11004 11005 11005 11006 11006
10935 10938 10940 10942 10945 10947 10949 10951 10953 10955 10957 10959 10960 10962 10964 10965 10967 10968 10969 10971 10972 10974 10975 10977 10978 10979 10980 10981 10982 10983 10984 10985 10985 10985 10985 10984 10984 10984 10984 10984 10984 10985 10985 10985 10985 10985 10984 10984 10984 10984 10984 10984 10983 10983 10983 10984 10984 10984 10985 10985 10986 10987 10988 10989 10990 10991 10992 10992 10993 10993 10993 10993 10995 10996 10997 10998 10998 10999 10999 11000 11001 11002 11002 11002 11002 11003 11003 11004
10930 10933 10935 10938 10940 10942 10945 10947 10949 10951 10953 10955 10957 10958 10960 10962 10963 10965 10966 10967 10969 10971 10972 10974 10975 10976 10977 10978 10979 10980 10981 10982 10983 10983 10983 10983 10982 10983 10983 10982 10982 10982 10983 10983 10983 10983 10983 10982 10982 10982 10981 10981 10981 10981 10981 10981 10981 10982 10982 10983 10983 10984 10986 10986 10987 10988 10989 10990 10990 10991 10991 10991 10992 10993 10994 10996 10996 10997 10997 10997 10998 10999 11000 11000 11000 11001 11002 11002
10925 10928 10930 10933 10935 10937 10940 10942 10945 10947 10949 10951 10953 10955 10957 10959 10960 10962 10963 10964 10966 10968 10969 10971 10973 10974 10975 10975 10977 10978 10978 10979 10981 10982 10982 10982 10981 10981 10981 10980 10980 10981 10981 10981 10981 10981 10981 10980 10980 10979 10979 10979 10979 10979 10979 10979 10978 10979 10979 10980 10981 10982 10983 10984 10985 10985 10985 10986 10987 10988 10989 10989 10990 10991 10992 10993 10994 10994 10994 10995 10995 10996 10997 10998 10998 10999 11001 11001
10920 10923 10925 10928 10930 10932 10935 10938 10940 10943 10945 10948 10950 10951 10953 10955 10957 10958 10959 10961 10963 10964 10966 10968 10969 10971 10972 10973 10974 10975 10976 10976 10978 10979 10980 10980 10979 10979 10979 10979 10979 10979 10979 10979 10979 10979 10979 10979 10978 10978 10977 10976 10976 10977 10977 10976 10976 10976 10977 10977 10978 10979 10981 10981 10982 10982 10983 10983 10984 10985 10986 10987 10988 10989 10990 10991 10991 10991 10991 10992 10992 10993 10995 10995 10996 10997 10998 10999
10915 10918 10920 10922 10925 10927 10930 10933 10935 10938 10941 10944 10946 10947 10949 10951 10953 10955 10956 10957 10959 10961 10963 10964 10966 10968 10969 10970 10971 10972 10973 10973 10975 10977 10978 10978 10978 10977 10977 10977 10977 10977 10977 10977 10977 10977 10977 10977 10976 10976 10975 10974 10974 10974 10975 10974 10974 10973 10974 10975 10976 10977 10978 10978 10979 10979 10980 10981 10982 10983 10984 10985 10986 10987 10988 10988 10988 10988 10989 10989 10990 10991 10992 10992 10993 10994 10995 10996
10911 10913 10915 10917 10920 10922 10925 10928 10930 10933 10936 10939 10941 10943 10945 10947 10949 10951 10952 10954 10955 10957 10959 10961 10962 10964 10966 10967 10968 10969 10969 10971 10972 10974 10976 10976 10976 10976 10976 10976 10975 10975 10975 10975 10975 10974 10975 10975 10974 10973 10973 10972 10972 10972 10972 10972 10972 10972 10972 10973 10973 10974 10975 10976 10976 10977 10978 10978 10980 10981 10982 10983 10984 10984 10985 10985 10985 10986 10986 10987 10988 10989 10990 10990 10991 10991 10992 10993
10906 10908 10910 10912 10915 10917 10920 10923 10926 10929 10932 10935 10937 10939 10940 10942 10945 10947 10949 10950 10952 10953 10955 10957 10958 10960 10963 10964 10966 10965 10966 10968 10969 10970 10973 10974 10975 10975 10974 10974 10974 10973 10973 10973 10972 10972 10972 10972 10971 10971 10971 10970 10970 10970 10970 10970 10970 10970 10971 10971 10971 10971 10972 10973 10974 10975 10975 10976 10977 10979 10980 10981 10982 10982 10982 10982 10982 10983 10985 10986 10987 10988 10988 10989 10989 10989 10990 10990
10901 10903 10905 10908 10910 10913 10915 10918 10921 10924 10927 10930 10932 10934 10936 10938 10940 10943 10945 10946 10948 10949 10951 10953 10955 10957 10959 10961 10962 10962 10962 10965 10966 10967 10970 10972 10973 10973 10972 10972 10972 10972 10972 10971 10970 10969 10969 10969 10969 10969 10969 10969 10969 10968 10968 10968 10968 10969 10969 10969 10969 10969 10970 10971 10972 10972 10973 10974 10975 10976 10978 10979 10980 10980 10980 10980 10980 10981 10983 10984 10986 10986 10987 10987 10987 10988 10988 10988
10896 10898 10901 10903 10905 10908 10911 10913 10916 10920 10923 10925 10927 10929 10931 10933 10936 10938 10941 10942 10944 10945 10947 10949 10951 10953 10956 10958 10959 10958 10959 10961 10963 10965 10967 10969 10970 10970 10970 10970 10970 10970 10970 10969 10968 10967 10967 10966 10967 10967 10967 10968 10967 10966 10965 10965 10966 10966 10967 10968 10968 10967 10968 10968 10969 10970 10971 10972 10973 10974 10975 10976 10977 10978 10978 10978 10979 10980 10981 10983 10983 10984 10984 10984 10985 10985 10986 10986
10890 10893 10896 10898 10901 10903 10906 10909 10912 10915 10918 10920 10922 10924 10926 10928 10931 10934 10937 10938 10940 10941 10943 10945 10948 10950 10952 10953 10954 10955 10956 10958 10961 10962 10964 10965 10966 10967 10967 10968 10968 10969 10968 10967 10966 10965 10965 10965 10965 10966 10966 10966 10964 10963 10963 10963 10963 10964 10965 10966 10966 10966 10966 10967 10967 10968 10969 10970 10971 10971 10972 10973 10974 10975 10975 10976 10977 10978 10979 10980 10981 10981 10981 10982 10982 10982 10983 10983
10885 10888 10891 10893 10896 10899 10902 10904 10908 10910 10912 10914 10917 10919 10922 10924 10927 10930 10932 10934 10935 10937 10939 10941 10944 10946 10948 10949 10950 10953 10954 10956 10958 10959 10959 10961 10963 10964 10964 10966 10966 10966 10966 10965 10965 10964 10964 10964 10964 10964 10964 10963 10962 10961 10960 10961 10961 10962 10963 10964 10965 10965 10965 10965 10966 10966 10967 10968 10969 10969 10970 10971 10971 10972 10973 10974 10975 10977 10978 10978 10978 10979 10979 10979 10980 10980 10980 10981
10881 10883 10886 10888 10891 10894 10897 10900 10903 10906 10907 10909 10911 10914 10917 10920 10922 10925 10927 10929 10930 10932 10935 10937 10939 10942 10943 10944 10947 10951 10953 10954 10954 10954 10955 10957 10959 10960 10961 10963 10963 10963 10963 10963 10963 10963 10963 10963 10963 10962 10962 10961 10961 10960 10959 10959 10960 10961 10961 10962 10963 10963 10963 10964 10964 10965 10966 10966 10967 10968 10968 10969 10970 10970 10971 10972 10973 10974 10975 10976 10976 10977 10977 10978 10978 10978 10978 10979
10876 10878 10881 10884 10886 10889 10892 10895 10898 10901 10902 10904 10906 10909 10912 10915 10918 10920 10922 10923 10925 10928 10930 10933 10935 10937 10938 10940 10944 10948 10951 10950 10949 10949 10952 10952 10954 10956 10958 10960 10960 10960 10960 10960 10961 10962 10962 10963 10962 10960 10959 10958 10959 10958 10958 10957 10958 10959 10960 10960 10960 10961 10961 10962 10963 10964 10964 10965 10966 10966 10966 10967 10968 10968 10969 10970 10971 10972 10972 10973 10974 10974 10975 10976 10976 10976 10977 10977
10871 10873 10876 10879 10881 10884 10887 10890 10893 10895 10897 10899 10901 10904 10907 10910 10913 10915 10917 10919 10921 10924 10926 10928 10931 10933 10934 10937 10941 10945 10947 10946 10943 10945 10948 10948 10949 10953 10955 10956 10957 10957 10957 10957 10958 10960 10961 10961 10960 10959 10957 10956 10956 10956 10956 10955 10956 10957 10958 10958 10959 10959 10959 10960 10961 10962 10962 10963 10964 10965 10965 10966 10966 10967 10968 10969 10970 10970 10971 10971 10972 10972 10973 10974 10974 10975 10975 10975
10866 10868 10871 10874 10876 10879 10882 10885 10887 10890 10892 10894 10897 10900 10902 10905 10908 10911 10913 10915 10917 10919 10922 10924 10926 10928 10930 10933 10937 10940 10943 10941 10939 10941 10944 10945 10946 10949 10952 10953 10953 10953 10953 10954 10956 10958 10959 10959 10958 10958 10956 10955 10955 10955 10955 10954 10954 10955 10956 10957 10957 10957 10958 10958 10959 10960 10961 10961 10962 10963 10964 10964 10965 10966 10966 10967 10968 10968 10969 10970 10970 10971 10972 10972 10973 10973 10973 10974
10861 10863 10866 10868 10871 10874 10877 10879 10882 10884 10887 10890 10893 10895 10898 10900 10903 10906 10909 10911 10913 10915 10918 10919 10922 10924 10926 10929 10932 10936 10938 10938 10936 10938 10940 10941 10942 10946 10948 10949 10950 10950 10950 10950 10953 10956 10957 10957 10956 10957 10956 10955 10954 10953 10953 10952 10952 10953 10954 10955 10955 10955 10956 10957 10957 10958 10959 10960 10960 10961 10962 10963 10963 10964 10965 10966 10966 10967 10967 10967 10968 10969 10970 10970 10971 10971 10972 10972
10855 10858 10860 10862 10866 10869 10872 10874 10876 10879 10882 10885 10888 10891 10893 10895 10898 10901 10904 10906 10908 10911 10914 10916 10918 10920 10922 10924 10927 10930 10933 10934 10933 10933 10935 10937 10939 10942 10945 10945 10947 10948 10947 10947 10950 10953 10954 10954 10954 10955 10956 10954 10953 10951 10951 10950 10950 10951 10952 10952 10952 10953 10954 10955 10956 10957 10958 10959 10959 10960 10960 10961 10962 10962 10963 10964 10965 10965 10965 10966 10966 10967 10968 10968 10969 10969 10970 10970
10851 10852 10854 10857 10861 10864 10866 10869 10871 10874 10877 10880 10883 10886 10888 10890 10893 10896 10899 10901 10903 10907 10910 10912 10913 10914 10917 10920 10922 10925 10928 10930 10930 10930 10931 10934 10937 10940 10942 10942 10944 10945 10943 10944 10948 10950 10950 10951 10952 10953 10954 10953 10951 10950 10950 10949 10948 10949 10950 10950 10950 10951 10952 10954 10954 10955 10956 10957 10958 10958 10959 10959 10960 10961 10962 10963 10963 10964 10964 10965 10965 10966 10966 10967 10967 10967 10968 10969
10846 10848 10850 10854 10858 10859 10861 10863 10866 10869 10872 10875 10878 10881 10883 10886 10889 10892 10894 10896 10899 10902 10905 10906 10908 10911 10913 10915 10916 10920 10924 10927 10928 10927 10927 10931 10934 10937 10938 10939 10941 10941 10940 10943 10946 10946 10946 10947 10949 10950 10951 10951 10950 10950 10950 10949 10947 10947 10948 10948 10948 10949 10951 10952 10952 10953 10954 10955 10956 10957 10958 10958 10958 10959 10960 10961 10962 10963 10963 10964 10964 10964 10965 10965 10965 10966 10966 10967
10843 10844 10848 10851 10853 10853 10855 10858 10861 10864 10867 10870 10873 10876 10879 10881 10885 10887 10889 10891 10894 10898 10901 10902 10904 10906 10907 10909 10911 10915 10919 10923 10924 10923 10924 10927 10930 10933 10934 10936 10938 10937 10938 10941 10943 10943 10943 10944 10945 10947 10948 10949 10949 10949 10949 10949 10947 10945 10945 10946 10946 10948 10949 10950 10951 10952 10952 10953 10954 10955 10956 10957 10957 10958 10958 10959 10960 10960 10961 10962 10962 10963 10963 10963 10963 10964 10964 10965
10840 10842 10845 10846 10847 10848 10850 10853 10856 10860 10863 10865 10868 10871 10874 10876 10879 10882 10883 10885 10889 10893 10895 10897 10899 10901 10903 10904 10905 10910 10914 10917 10920 10920 10920 10923 10926 10929 10931 10932 10932 10933 10935 10938 10939 10940 10940 10940 10941 10943 10944 10947 10949 10948 10948 10947 10946 10944 10943 10944 10945 10947 10949 10949 10949 10950 10950 10951 10952 10953 10954 10955 10956 10956 10956 10957 10958 10958 10958 10959 10960 10960 10960 10960 10961 10961 10962 10962
10837 10839 10840 10841 10842 10844 10846 10848 10852 10855 10858 10861 10864 10867 10869 10871 10874 10877 10879 10880 10884 10888 10889 10891 10894 10896 10897 10898 10901 10905 10909 10912 10916 10917 10918 10920 10923 10926 10927 10926 10927 10930 10933 10935 10936 10936 10937 10937 10938 10939 10942 10946 10948 10947 10946 10945 10944 10943 10943 10944 10945 10946 10947 10947 10947 10948 10948 10949 10949 10950 10951 10952 10953 10953 10954 10954 10955 10956 10956 10956 10956 10957 10957 10957 10957 10958 10959 10959
10835 10836 10837 10837 10839 10840 10842 10845 10848 10851 10853 10856 10859 10862 10864 10867 10869 10872 10874 10876 10879 10882 10884 10886 10889 10891 10892 10894 10897 10900 10903 10909 10913 10914 10915 10917 10920 10922 10923 10923 10924 10927 10930 10932 10932 10933 10934 10935 10935 10936 10940 10944 10945 10945 10945 10944 10942 10943 10944 10944 10944 10944 10945 10945 10945 10946 10946 10946 10947 10948 10949 10950 10950 10950 10950 10951 10951 10952 10952 10953 10953 10954 10954 10954 10954 10955 10955 10956
10833 10833 10834 10835 10836 10837 10839 10842 10845 10847 10849 10852 10855 10857 10860 10862 10864 10867 10870 10871 10874 10877 10879 10881 10884 10886 10889 10891 10893 10896 10901 10907 10910 10912 10913 10915 10916 10918 10919 10920 10922 10924 10926 10928 10929 10930 10931 10931 10932 10934 10938 10941 10942 10943 10944 10942 10941 10942 10943 10943 10942 10941 10942 10942 10943 10944 10945 10945 10944 10945 10946 10947 10948 10948 10948 10948 10948 10948 10948 10949 10949 10950 10951 10951 10952 10952 10952 10952
10831 10832 10832 10833 10833 10835 10837 10839 10841 10843 10845 10848 10850 10853 10855 10858 10860 10863 10865 10867 10870 10873 10875 10878 10880 10883 10885 10887 10890 10893 10899 10904 10906 10908 10910 10911 10912 10913 10915 10918 10920 10920 10921 10923 10926 10927 10927 10927 10929 10932 10935 10938 10939 10941 10941 10940 10940 10941 10942 10942 10941 10939 10939 10941 10941 10942 10943 10944 10943 10943 10944 10944 10945 10946 10946 10946 10945 10945 10945 10945 10945 10946 10947 10948 10949 10949 10949 10949
10830 10830 10830 10831 10832 10833 10835 10837 10838 10839 10842 10844 10846 10849 10851 10854 10857 10859 10861 10864 10868 10871 10873 10875 10878 10881 10883 10886 10888 10891 10895 10899 10902 10905 10906 10906 10907 10909 10912 10916 10918 10916 10915 10919 10922 10922 10923 10924 10926 10929 10932 10934 10936 10938 10939 10938 10938 10939 10940 10941 10940 10938 10939 10940 10940 10940 10942 10943 10943 10942 10942 10942 10942 10943 10944 10944 10944 10943 10942 10942 10942 10943 10944 10945 10946 10946 10946 10946
10829 10829 10829 10830 10830 10832 10833 10834 10835 10836 10838 10841 10843 10845 10847 10850 10853 10855 10858 10861 10865 10868 10871 10873 10876 10878 10881 10884 10886 10888 10891 10895 10898 10901 10902 10902 10903 10906 10908 10911 10913 10911 10910 10914 10919 10919 10919 10920 10923 10926 10929 10931 10933 10935 10936 10936 10937 10938 10939 10940 10939 10938 10938 10938 10938 10938 10939 10942 10943 10942 10941 10940 10941 10942 10942 10942 10942 10941 10940 10940 10940 10941 10942 10943 10943 10943 10943 10943
10827 10828 10828 10828 10829 10830 10830 10831 10832 10833 10835 10838 10840 10842 10844 10846 10848 10851 10854 10858 10861 10864 10867 10870 10873 10875 10877 10880 10882 10884 10887 10890 10894 10896 10897 10899 10900 10902 10904 10907 10909 10908 10907 10910 10915 10917 10916 10917 10920 10923 10925 10927 10930 10932 10934 10935 10935 10936 10937 10938 10938 10938 10937 10936 10936 10936 10936 10939 10942 10942 10941 10940 10940 10941 10941 10940 10940 10939 10939 10938 10938 10939 10940 10941 10941 10940 10940 10940
10826 10827 10827 10827 10827 10828 10828 10829 10830 10831 10833 10835 10837 10839 10840 10842 10844 10847 10850 10853 10856 10859 10862 10865 10868 10870 10872 10874 10877 10880 10883 10886 10889 10892 10894 10896 10897 10898 10901 10904 10907 10906 10904 10907 10912 10914 10913 10914 10917 10919 10921 10924 10927 10930 10932 10933 10933 10934 10935 10936 10936 10936 10935 10934 10933 10933 10933 10936 10940 10940 10939 10939 10939 10939 10939 10939 10938 10938 10937 10937 10937 10937 10938 10938 10939 10938 10938 10938
10825 10826 10826 10826 10826 10826 10826 10827 10828 10829 10831 10833 10834 10835 10836 10838 10841 10843 10845 10848 10851 10854 10857 10860 10862 10864 10866 10869 10872 10876 10879 10882 10885 10888 10890 10893 10894 10896 10898 10900 10902 10903 10901 10903 10909 10911 10910 10911 10912 10914 10917 10920 10924 10927 10930 10931 10930 10930 10932 10933 10934 10934 10933 10931 10930 10930 10931 10934 10937 10938 10939 10938 10938 10938 10938 10938 10937 10937 10936 10936 10936 10936 10936 10936 10936 10936 10936 10936
10825 10825 10825 10825 10825 10825 10825 10826 10827 10828 10829 10830 10831 10832 10834 10835 10837 10839 10841 10844 10847 10850 10853 10855 10857 10859 10861 10864 10868 10871 10875 10878 10881 10884 10886 10889 10891 10893 10894 10896 10898 10899 10899 10900 10905 10908 10907 10906 10908 10910 10913 10916 10920 10925 10927 10928 10928 10928 10928 10930 10932 10932 10931 10929 10929 10929 10929 10931 10934 10936 10937 10937 10937 10937 10937 10937 10936 10935 10935 10935 10934 10934 10934 10934 10934 10934 10934 10934
10824 10824 10824 10824 10824 10824 10824 10825 10825 10826 10827 10827 10828 10830 10831 10833 10834 10836 10839 10842 10844 10847 10849 10851 10853 10856 10858 10860 10864 10868 10871 10874 10877 10880 10883 10885 10887 10889 10891 10892 10893 10895 10896 10896 10899 10904 10904 10902 10904 10907 10909 10912 10918 10922 10924 10925 10926 10925 10924 10926 10930 10930 10929 10927 10927 10928 10928 10930 10932 10934 10935 10935 10936 10936 10936 10936 10935 10934 10933 10933 10933 10932 10932 10932 10932 10931 10932 10932
10823 10823 10823 10823 10823 10823 10823 10823 10824 10824 10825 10825 10826 10828 10829 10830 10832 10835 10837 10839 10841 10842 10845 10847 10849 10852 10855 10858 10861 10864 10867 10869 10872 10875 10878 10880 10882 10885 10886 10887 10889 10890 10891 10892 10895 10900 10901 10900 10901 10904 10906 10910 10915 10918 10920 10921 10923 10923 10922 10924 10927 10928 10927 10926 10926 10927 10927 10928 10930 10931 10932 10933 10934 10934 10934 10934 10933 10932 10932 10931 10931 10930 10930 10930 10930 10930 10930 10930
10822 10822 10822 10822 10822 10822 10822 10823 10823 10823 10823 10823 10824 10826 10827 10829 10831 10833 10834 10836 10837 10839 10842 10844 10846 10849 10851 10854 10856 10859 10861 10864 10867 10870 10873 10875 10877 10880 10882 10884 10885 10886 10887 10890 10892 10895 10897 10898 10900 10900 10902 10907 10911 10912 10915 10918 10921 10921 10921 10922 10925 10925 10924 10924 10926 10926 10926 10927 10928 10930 10930 10931 10932 10932 10932 10932 10931 10930 10929 10929 10929 10928 10928 10927 10927 10927 10927 10928
10822 10822 10821 10821 10821 10822 10822 10822 10823 10823 10822 10823 10823 10825 10827 10828 10829 10830 10832 10833 10835 10837 10839 10841 10843 10845 10847 10849 10851 10853 10855 10858 10862 10865 10867 10869 10872 10876 10879 10880 10882 10884 10886 10889 10890 10891 10894 10895 10897 10897 10898 10903 10906 10907 10910 10914 10917 10918 10919 10920 10922 10922 10922 10923 10925 10926 10926 10926 10927 10928 10929 10930 10930 10930 10930 10929 10928 10927 10927 10927 10927 10926 10926 10925 10925 10925 10925 10925
10821 10821 10820 10820 10820 10821 10821 10821 10821 10821 10821 10822 10823 10824 10825 10826 10827 10828 10830 10831 10833 10834 10836 10837 10839 10841 10842 10843 10845 10848 10851 10854 10857 10859 10861 10864 10868 10873 10875 10878 10880 10883 10885 10887 10888 10889 10890 10892 10894 10894 10895 10898 10900 10902 10905 10909 10912 10914 10915 10917 10918 10920 10921 10922 10924 10925 10925 10925 10925 10926 10927 10928 10929 10929 10928 10927 10925 10925 10925 10925 10925 10924 10924 10923 10922 10922 10923 10923
10819 10819 10819 10820 10820 10820 10820 10820 10820 10820 10820 10820 10822 10823 10823 10824 10825 10826 10827 10829 10830 10831 10832 10834 10836 10837 10838 10839 10841 10844 10847 10849 10852 10854 10857 10861 10865 10869 10873 10875 10876 10878 10881 10883 10884 10884 10885 10886 10889 10891 10893 10894 10895 10897 10900 10903 10907 10910 10911 10913 10916 10918 10921 10922 10923 10924 10924 10924 10924 10925 10925 10926 10927 10927 10926 10925 10923 10923 10923 10923 10923 10922 10922 10921 10920 10920 10920 10921
10818 10818 10818 10819 10819 10819 10819 10819 10819 10819 10819 10819 10820 10821 10822 10822 10823 10824 10825 10826 10828 10829 10830 10832 10833 10833 10835 10837 10839 10841 10843 10845 10847 10849 10852 10857 10860 10864 10867 10868 10869 10872 10874 10876 10878 10879 10880 10881 10884 10887 10890 10890 10890 10892 10895 10897 10901 10905 10907 10910 10915 10918 10920 10921 10921 10922 10922 10922 10922 10923 10922 10923 10924 10925 10924 10922 10921 10920 10920 10920 10920 10920 10919 10919 10918 10918 10918 10918
10817 10817 10817 10817 10817 10817 10817 10818 10818 10818 10818 10818 10818 10819 10820 10821 10822 10822 10823 10825 10826 10827 10828 10829 10830 10831 10832 10834 10836 10838 10839 10841 10842 10845 10848 10852 10854 10857 10860 10862 10865 10867 10868 10870 10873 10874 10875 10877 10878 10881 10884 10886 10886 10887 10890 10893 10897 10900 10904 10909 10914 10915 10916 10917 10918 10919 10919 10919 10919 10919 10920 10920 10921 10923 10922 10919 10918 10918 10918 10918 10918 10917 10917 10917 10916 10916 10916 10916
10817 10817 10816 10816 10816 10815 10816 10816 10816 10817 10817 10818 10817 10817 10818 10820 10821 10821 10822 10823 10825 10826 10827 10827 10828 10829 10831 10832 10834 10835 10837 10838 10839 10842 10845 10847 10849 10851 10854 10857 10860 10862 10862 10864 10866 10868 10870 10871 10871 10875 10878 10880 10881 10883 10886 10890 10893 10896 10902 10907 10910 10912 10913 10913 10914 10915 10915 10914 10915 10916 10916 10917 10919 10920 10919 10916 10915 10916 10916 10916 10916 10915 10915 10915 10914 10914 10914 10914
10816 10816 10815 10815 10814 10814 10814 10815 10815 10816 10816 10817 10817 10816 10817 10818 10819 10820 10821 10822 10823 10824 10825 10826 10827 10828 10829 10830 10832 10833 10834 10836 10838 10840 10842 10844 10846 10847 10849 10852 10855 10856 10857 10859 10861 10863 10865 10865 10867 10871 10874 10875 10877 10880 10882 10885 10888 10892 10898 10903 10906 10907 10909 10909 10910 10912 10911 10910 10912 10913 10913 10915 10916 10917 10915 10913 10912 10913 10913 10914 10914 10914 10913 10913 10912 10912 10912 10912
10814 10814 10814 10814 10813 10813 10813 10813 10814 10814 10815 10816 10816 10816 10816 10817 10818 10818 10819 10821 10822 10823 10824 10824 10825 10825 10826 10828 10829 10830 10831 10833 10835 10837 10839 10842 10843 10844 10845 10848 10850 10851 10853 10855 10857 10858 10859 10860 10863 10866 10868 10870 10873 10876 10877 10880 10884 10888 10893 10897 10901 10903 10904 10905 10907 10907 10906 10907 10908 10909 10910 10912 10913 10912 10910 10909 10910 10911 10911 10911 10912 10911 10911 10910 10910 10910 10910 10911
10813 10813 10812 10813 10812 10812 10811 10811 10812 10813 10814 10814 10815 10815 10816 10817 10817 10818 10818 10819 10820 10821 10821 10821 10821 10822 10823 10824 10826 10827 10828 10830 10831 10833 10836 10838 10839 10841 10842 10844 10846 10848 10850 10851 10852 10854 10854 10855 10858 10861 10863 10865 10868 10871 10874 10876 10880 10883 10888 10892 10897 10899 10900 10902 10903 10903 10903 10903 10904 10905 10908 10910 10909 10908 10906 10907 10908 10908 10909 10909 10909 10909 10909 10908 10907 10907 10908 10908
10812 10811 10811 10811 10811 10810 10810 10810 10810 10811 10812 10813 10814 10815 10815 10816 10817 10818 10818 10818 10819 10819 10820 10820 10819 10820 10821 10822 10823 10824 10826 10827 10828 10830 10832 10834 10835 10837 10839 10841 10842 10844 10846 10847 10849 10850 10850 10850 10852 10855 10857 10861 10864 10868 10871 10873 10875 10878 10883 10888 10893 10894 10895 10897 10899 10899 10899 10899 10900 10902 10905 10906 10905 10905 10904 10905 10905 10906 10906 10906 10906 10906 10906 10905 10905 10905 10905 10906
10810 10810 10809 10809 10809 10809 10809 10808 10809 10810 10811 10812 10813 10814 10815 10815 10816 10816 10817 10818 10819 10819 10819 10819 10818 10819 10819 10820 10821 10822 10823 10824 10826 10828 10830 10831 10833 10834 10836 10837 10839 10841 10842 10843 10845 10846 10846 10847 10848 10850 10853 10857 10861 10864 10867 10869 10871 10874 10878 10884 10888 10890 10891 10892 10893 10894 10895 10896 10897 10900 10902 10902 10902 10902 10901 10902 10903 10903 10903 10904 10904 10904 10903 10902 10902 10902 10903 10904
10808 10808 10808 10808 10808 10808 10808 10807 10807 10808 10809 10810 10812 10813 10814 10814 10814 10815 10816 10817 10818 10819 10819 10818 10818 10818 10818 10819 10819 10820 10822 10823 10824 10826 10828 10829 10831 10832 10834 10835 10837 10838 10839 10840 10841 10842 10843 10843 10844 10846 10849 10853 10857 10860 10863 10864 10867 10870 10874 10880 10883 10885 10886 10888 10889 10890 10892 10892 10894 10897 10898 10899 10899 10898 10898 10899 10900 10900 10900 10901 10901 10901 10901 10900 10900 10901 10901 10902
10805 10805 10806 10806 10806 10806 10806 10806 10806 10807 10807 10809 10810 10811 10813 10813 10813 10814 10815 10816 10816 10817 10817 10817 10817 10817 10817 10818 10819 10820 10821 10822 10823 10824 10826 10827 10829 10831 10832 10833 10834 10835 10836 10836 10837 10838 10839 10840 10842 10844 10846 10850 10855 10857 10858 10861 10864 10867 10871 10875 10878 10879 10881 10883 10884 10886 10887 10888 10891 10893 10894 10894 10895 10895 10895 10896 10897 10897 10898 10899 10899 10899 10898 10898 10898 10899 10900 10900
10802 10803 10803 10804 10804 10804 10804 10804 10805 10805 10806 10807 10808 10809 10810 10811 10812 10812 10813 10814 10814 10815 10815 10816 10816 10816 10816 10817 10818 10819 10820 10821 10821 10822 10824 10825 10827 10828 10829 10830 10831 10831 10832 10833 10833 10834 10835 10836 10839 10841 10842 10847 10853 10855 10856 10859 10862 10864 10867 10870 10872 10874 10877 10879 10880 10881 10882 10884 10886 10888 10889 10890 10891 10891 10892 10893 10894 10895 10895 10896 10897 10896 10896 10896 10896 10897 10898 10898